Weather History for Van, Turkey

Change the Weather History Date:

Friday, August 16, 2013

  Actual Average Record
Temperature  
Mean Temperature 70 °F -  
Max Temperature 82 °F 78 °F 89 °F (2006)
Min Temperature 57 °F 53 °F 53 °F (2011)
Cooling Degree Days 4    
Growing Degree Days 20 (Base 50)    
Moisture  
Dew Point 50 °F    
Average Humidity 46    
Maximum Humidity 61    
Minimum Humidity 28    
Precipitation  
Precipitation 0.00 in 0.01 in - ()
Sea Level Pressure  
Sea Level Pressure 29.96 in    
Wind  
Wind Speed 5 mph ()    
Max Wind Speed 13 mph    
Max Gust Speed -    
Visibility 6.2 miles    
Events      
Averages and records for this station are not official NWS values.
T = Trace of Precipitation, MM = Missing Value Source: Averaged Metar Reports

Daily Weather History Graph

Daily Weather History Graph

Search for Another Location

Airport:

Trip Planner

Search our weather history database for the weather conditions in past years. The results will help you decide how hot, cold, wet, or windy it might be!

Date:

Astronomy

Aug. 16, 2013 Rise Set
Actual Time 5:21 AM EEST 6:59 PM EEST
Civil Twilight 4:53 AM EEST 7:27 PM EEST
Nautical Twilight 4:19 AM EEST 8:01 PM EEST
Astronomical Twilight 3:43 AM EEST 8:37 PM EEST
Moon 2:54 PM EEST (8/16) 12:05 AM EEST (8/16)
Length of Visible Light 14h 34m
Length of Day
13h 37m
Waxing Gibbous, 71% of the Moon is Illuminated
Aug 16
Waxing Gibbous
Aug 21
Full
Aug 28
Last Quarter
Sep 5
New
Sep 12
First Quarter

Hourly Weather History & Observations

Time (EEST) Temp. Heat Index Dew Point Humidity Pressure Visibility Wind Dir Wind Speed Gust Speed Precip Events Conditions
12:50 AM 71.6 °F - 41.0 °F 33% 29.98 in 6.2 mi ENE 8.1 mph - N/A   Partly Cloudy
1:50 AM 68.0 °F - 42.8 °F 40% 29.98 in 6.2 mi East 5.8 mph - N/A   Partly Cloudy
2:50 AM 62.6 °F - 46.4 °F 55% 29.98 in 6.2 mi SE 3.5 mph - N/A   Partly Cloudy
3:00 AM 62 °F - 46 °F 45%  in 6 mi SE 3.5 mph - -   Scattered Clouds
3:50 AM 59.0 °F - 44.6 °F 59% 29.98 in 6.2 mi Variable 2.3 mph - N/A   Partly Cloudy
4:50 AM 60.8 °F - 46.4 °F 59% 29.98 in 6.2 mi SE 3.5 mph - N/A   Partly Cloudy
5:50 AM 59.0 °F - 44.6 °F 59% 29.98 in 6.2 mi NE 6.9 mph - N/A   Partly Cloudy
6:50 AM 71.6 °F - 48.2 °F 43% 29.98 in 6.2 mi Variable 3.5 mph - N/A   Partly Cloudy
7:50 AM 73.4 °F - 48.2 °F 41% 30.01 in 6.2 mi Variable 2.3 mph - N/A   Partly Cloudy
8:50 AM 75.2 °F - 51.8 °F 44% 29.98 in 6.2 mi West 5.8 mph - N/A   Partly Cloudy
9:00 AM 76 °F - 52 °F 32%  in 6 mi West 5.8 mph - -   Scattered Clouds
9:50 AM 77.0 °F - 53.6 °F 44% 29.98 in 6.2 mi West 6.9 mph - N/A   Partly Cloudy
10:50 AM 78.8 °F - 55.4 °F 44% 29.98 in 6.2 mi WSW 8.1 mph - N/A   Partly Cloudy
11:50 AM 78.8 °F - 60.8 °F 54% 29.95 in 6.2 mi WSW 6.9 mph - N/A   Partly Cloudy
12:50 PM 80.6 °F 81.8 °F 62.6 °F 54% 29.95 in 6.2 mi SW 10.4 mph - N/A   Partly Cloudy
1:50 PM 82.4 °F 82.9 °F 60.8 °F 48% 29.92 in 6.2 mi WSW 10.4 mph - N/A   Partly Cloudy
2:50 PM 78.8 °F - 62.6 °F 57% 29.92 in 6.2 mi SW 12.7 mph - N/A   Partly Cloudy
3:00 PM 79 °F - 62 °F 47%  in 6 mi SW 12.7 mph - -   Scattered Clouds
3:50 PM 78.8 °F - 64.4 °F 61% 29.92 in 6.2 mi SW 9.2 mph - N/A   Partly Cloudy
4:50 PM 78.8 °F - 55.4 °F 44% 29.92 in 6.2 mi SSW 4.6 mph - N/A   Partly Cloudy
5:50 PM 78.8 °F - 51.8 °F 39% 29.92 in 6.2 mi SW 5.8 mph - N/A   Partly Cloudy
6:50 PM 73.4 °F - 53.6 °F 50% 29.92 in 6.2 mi South 1.2 mph - N/A   Partly Cloudy
7:50 PM 68.0 °F - 48.2 °F 49% 29.95 in - ENE 4.6 mph - N/A   Clear
8:50 PM 66.2 °F - 42.8 °F 43% 29.98 in - Variable 1.2 mph - N/A   Clear
9:00 PM 66 °F - 43 °F 31%  in 6 mi SSE 1.2 mph - -  
9:50 PM 62.6 °F - 42.8 °F 48% 29.98 in - Variable 1.2 mph - N/A   Clear
10:50 PM 68.0 °F - 33.8 °F 28% 29.98 in - WSW 5.8 mph - N/A   Clear
11:50 PM 66.2 °F - 32.0 °F 28% 29.98 in - ENE 3.5 mph - N/A   Clear